Topeka, KS

10:56 AM CDT on October 17, 2019 (GMT -0500)
Billard Municipal

Weather History for KTOP - August, 2019

Change the Weather History Date:

Thursday, August 15, 2019

  Actual Average Record
Temperature  
Mean Temperature 74 °F 78 °F  
Max Temperature 85 °F 89 °F 112 °F (1936)
Min Temperature 62 °F 67 °F 50 °F (1994)
Degree Days  
Heating Degree Days 0 0  
Month to date heating degree days 0 0  
Since 1 June heating degree days 0 8  
Since 1 July heating degree days 0 0  
Cooling Degree Days 9 13  
Month to date cooling degree days 197 204  
Year to date cooling degree days 1076 1046  
Since 1 June cooling degree days 964 920  
Growing Degree Days 23 (Base 50)    
Moisture  
Dew Point 66 °F    
Average Humidity 74    
Maximum Humidity 93    
Minimum Humidity 55    
Precipitation  
Precipitation 0.43 in 0.14 in 1.80 in (1990)
Month to date precipitation 3.32 2.03  
Year to date precipitation 32.18 24.36  
Snow  
Snow 0.00 in 0.00 in 0.00 in ()
Month to date snowfall 0.0 0.0  
Year to date snowfall 18.5 11.3  
Since 1 July snowfall 0.0 0.0  
Snow Depth 0.00 in    
Sea Level Pressure  
Sea Level Pressure 29.98 in    
Wind  
Wind Speed 7 mph (ESE)    
Max Wind Speed 18 mph    
Max Gust Speed 25 mph    
Visibility 9 miles    
Events Rain , Thunderstorm    
T = Trace of Precipitation, MM = Missing Value Source: NWS Daily Summary

Daily Weather History Graph

Daily Weather History Graph

Search for Another Location

Airport or City:

Astronomy

Aug. 15, 2019 Rise Set
Actual Time 6:35 AM CDT 8:17 PM CDT
Civil Twilight 6:07 AM CDT 8:46 PM CDT
Nautical Twilight 5:32 AM CDT 9:20 PM CDT
Astronomical Twilight 4:55 AM CDT 9:57 PM CDT
Moon 8:46 PM CDT (8/15) 6:31 AM CDT (8/15)
Length of Visible Light 14h 39m
Length of Day
13h 42m
Full, 100% of the Moon is Illuminated
Aug 15
Full
Aug 23
Last Quarter
Aug 30
New
Sep 5
First Quarter
Sep 13
Full

Hourly Weather History & Observations

Time (CDT) Temp. Heat Index Dew Point Humidity Pressure Visibility Wind Dir Wind Speed Gust Speed Precip Events Conditions
12:53 AM 66.9 °F - 63.0 °F 87% 30.08 in 10.0 mi Calm Calm - N/A   Clear
1:53 AM 64.0 °F - 62.1 °F 93% 30.08 in 10.0 mi Calm Calm - N/A   Clear
2:53 AM 66.0 °F - 63.0 °F 90% 30.08 in 10.0 mi Calm Calm - N/A   Clear
3:48 AM 64.4 °F - 62.6 °F 94% 30.09 in 1.8 mi Calm Calm - N/A   Clear
3:51 AM 62.6 °F - 60.8 °F 94% 30.09 in 0.8 mi Calm Calm - N/A   Mist
3:53 AM 63.0 °F - 61.0 °F 93% 30.07 in 0.8 mi Calm Calm - N/A   Mist
4:02 AM 64.0 °F - 62.1 °F 93% 30.09 in 1.5 mi Calm Calm - N/A   Partly Cloudy
4:07 AM 64.9 °F - 62.1 °F 90% 30.09 in 4.0 mi Calm Calm - N/A   Partly Cloudy
4:53 AM 64.0 °F - 61.0 °F 90% 30.06 in 10.0 mi Calm Calm - N/A   Clear
5:53 AM 63.0 °F - 61.0 °F 93% 30.05 in 10.0 mi ESE 3.5 mph - N/A   Clear
6:53 AM 64.0 °F - 62.1 °F 93% 30.06 in 10.0 mi Calm Calm - N/A   Clear
7:53 AM 66.0 °F - 63.0 °F 90% 30.05 in 10.0 mi Calm Calm - N/A   Clear
8:53 AM 71.1 °F - 64.0 °F 78% 30.06 in 10.0 mi ESE 3.5 mph - N/A   Clear
9:53 AM 75.9 °F - 62.1 °F 62% 30.06 in 10.0 mi SE 5.8 mph - N/A   Clear
10:53 AM 78.1 °F - 62.1 °F 58% 30.04 in 10.0 mi SE 9.2 mph - N/A   Clear
11:53 AM 79.0 °F - 63.0 °F 58% 30.04 in 10.0 mi ESE 8.1 mph - N/A   Clear
12:53 PM 81.0 °F 82.5 °F 64.0 °F 56% 30.01 in 10.0 mi ESE 8.1 mph - N/A   Clear
1:53 PM 84.0 °F 86.5 °F 66.9 °F 56% 29.98 in 10.0 mi East 11.5 mph - N/A   Partly Cloudy
2:53 PM 84.0 °F 86.5 °F 66.9 °F 56% 29.94 in 10.0 mi East 10.4 mph - N/A   Partly Cloudy
3:53 PM 82.0 °F 84.9 °F 68.0 °F 62% 29.92 in 10.0 mi East 12.7 mph - N/A   Overcast
4:53 PM 82.0 °F 84.9 °F 68.0 °F 62% 29.90 in 10.0 mi ESE 10.4 mph - N/A   Overcast
5:53 PM 84.0 °F 87.0 °F 68.0 °F 58% 29.88 in 10.0 mi ESE 15.0 mph - N/A   Partly Cloudy
6:53 PM 82.0 °F 85.5 °F 69.1 °F 65% 29.83 in 10.0 mi SE 16.1 mph 24.2 mph N/A   Clear
8:02 PM 80.1 °F 82.9 °F 69.1 °F 69% 29.87 in 10.0 mi SE 11.5 mph - N/A Thunderstorm Scattered Clouds
8:15 PM 80.1 °F 83.2 °F 70.0 °F 71% 29.89 in 10.0 mi ESE 6.9 mph - 0.00 in Rain , Thunderstorm Light Thunderstorms and Rain
8:39 PM 78.1 °F - 71.1 °F 79% 29.87 in 2.0 mi ENE 11.5 mph - 0.10 in Rain , Thunderstorm Heavy Thunderstorms and Rain
8:53 PM 78.1 °F - 71.1 °F 79% 29.83 in 9.0 mi SE 11.5 mph 25.3 mph 0.23 in Rain , Thunderstorm Light Thunderstorms and Rain
9:00 PM 78.1 °F - 71.1 °F 79% 29.85 in 5.0 mi SE 12.7 mph - 0.05 in Rain , Thunderstorm Heavy Thunderstorms and Rain
9:45 PM 75.9 °F - 72.0 °F 87% 29.88 in 9.0 mi Calm Calm - 0.19 in Rain , Thunderstorm Light Rain
9:53 PM 75.9 °F - 72.0 °F 87% 29.85 in 10.0 mi ESE 6.9 mph - 0.19 in Rain , Thunderstorm Light Rain
10:30 PM 75.0 °F - 72.0 °F 90% 29.91 in 10.0 mi West 6.9 mph - 0.00 in Rain Light Rain
10:53 PM 73.9 °F - 66.9 °F 79% 29.88 in 10.0 mi South 6.9 mph 18.4 mph 0.00 in   Mostly Cloudy
11:30 PM 70.0 °F - 66.9 °F 90% 29.95 in 10.0 mi Calm Calm - N/A Thunderstorm Clear
11:45 PM 71.1 °F - 66.9 °F 87% 29.94 in 10.0 mi NNW 5.8 mph - N/A   Mostly Cloudy
11:53 PM 71.1 °F - 66.9 °F 87% 29.90 in 10.0 mi Variable 3.5 mph - 0.00 in Rain Light Rain